• In Czech Republic
  • List of Countries
  • For 7 days
  • Water Temperature
  • Satellite Maps
  • Weather Map
  • Weather Widgets
  • user-avatar
    Login

    Hourly Weather Satif

    Today, 19 August, Saturday

    Time Temperature Precipitation Wind Pressure Humidity
    00:00 +28°C° 0 mm 1 mps 675 mmHg 42%
    01:00 +28°C° 0 mm 1 mps 675 mmHg 42%
    02:00 +27°C° 0 mm 1 mps 675 mmHg 42%
    03:00 +27°C° 0 mm 1 mps 674 mmHg 43%
    04:00 +27°C° 0 mm 1 mps 675 mmHg 41%
    05:00 +27°C° 0 mm 1 mps 675 mmHg 40%
    06:00 +27°C° 0 mm 1 mps 675 mmHg 38%
    07:00 +29°C° 0 mm 2 mps 675 mmHg 34%
    08:00 +30°C° 0 mm 3 mps 676 mmHg 31%
    09:00 +33°C° 0 mm 3 mps 677 mmHg 27%
    10:00 +33°C° 0 mm 3 mps 677 mmHg 26%
    11:00 +34°C° 0 mm 4 mps 677 mmHg 26%
    12:00 +35°C° 0 mm 4 mps 677 mmHg 26%
    13:00 +35°C° 0 mm 4 mps 676 mmHg 27%
    14:00 +34°C° 0 mm 3 mps 676 mmHg 28%
    15:00 +34°C° 0 mm 3 mps 676 mmHg 28%
    16:00 +33°C° 0 mm 3 mps 676 mmHg 34%
    17:00 +32°C° 0 mm 4 mps 675 mmHg 39%
    18:00 +30°C° 0 mm 4 mps 675 mmHg 44%
    19:00 +29°C° 0 mm 4 mps 675 mmHg 47%
    20:00 +28°C° 0 mm 3 mps 676 mmHg 51%
    21:00 +27°C° 0 mm 3 mps 676 mmHg 54%
    22:00 +26°C° 0 mm 3 mps 676 mmHg 55%
    23:00 +26°C° 0 mm 2 mps 676 mmHg 56%

    Tomorrow, 20 August, Sunday

    Time Temperature Precipitation Wind Pressure Humidity
    00:00 +26°C° 0 mm 2 mps 676 mmHg 57%
    01:00 +25°C° 0 mm 2 mps 675 mmHg 58%
    02:00 +25°C° 0 mm 2 mps 675 mmHg 60%
    03:00 +24°C° 0 mm 2 mps 675 mmHg 61%
    04:00 +24°C° 0 mm 2 mps 675 mmHg 62%
    05:00 +24°C° 0 mm 2 mps 675 mmHg 62%
    06:00 +24°C° 0 mm 2 mps 675 mmHg 63%
    07:00 +25°C° 0 mm 2 mps 676 mmHg 55%
    08:00 +26°C° 0 mm 2 mps 676 mmHg 48%
    09:00 +28°C° 0 mm 3 mps 677 mmHg 41%
    10:00 +29°C° 0 mm 3 mps 677 mmHg 39%
    11:00 +30°C° 0 mm 3 mps 677 mmHg 36%
    12:00 +31°C° 0 mm 3 mps 677 mmHg 34%
    13:00 +31°C° 0 mm 3 mps 677 mmHg 34%
    14:00 +32°C° 0 mm 4 mps 677 mmHg 35%
    15:00 +32°C° 0 mm 4 mps 676 mmHg 35%
    16:00 +30°C° 0 mm 4 mps 676 mmHg 39%
    17:00 +29°C° 0 mm 4 mps 676 mmHg 44%
    18:00 +27°C° 0 mm 5 mps 676 mmHg 49%
    19:00 +26°C° 0 mm 4 mps 676 mmHg 52%
    20:00 +25°C° 0 mm 3 mps 676 mmHg 56%
    21:00 +24°C° 0 mm 3 mps 676 mmHg 59%
    22:00 +24°C° 0 mm 3 mps 676 mmHg 60%
    23:00 +23°C° 0 mm 2 mps 676 mmHg 61%

    Day after tomorrow, 21 August, Monday

    Time Temperature Precipitation Wind Pressure Humidity
    00:00 +23°C° 0 mm 2 mps 676 mmHg 61%
    01:00 +23°C° 0 mm 2 mps 675 mmHg 62%
    02:00 +21°C° 0 mm 2 mps 675 mmHg 62%
    03:00 +21°C° 0 mm 2 mps 675 mmHg 63%
    04:00 +21°C° 0 mm 2 mps 675 mmHg 62%
    05:00 +21°C° 0 mm 2 mps 675 mmHg 62%
    06:00 +21°C° 0 mm 2 mps 675 mmHg 62%
    07:00 +23°C° 0 mm 2 mps 676 mmHg 55%
    08:00 +24°C° 0 mm 2 mps 676 mmHg 49%
    09:00 +25°C° 0 mm 2 mps 676 mmHg 42%
    10:00 +27°C° 0 mm 2 mps 676 mmHg 37%
    11:00 +28°C° 0 mm 2 mps 676 mmHg 33%
    12:00 +29°C° 0 mm 2 mps 677 mmHg 28%
    13:00 +30°C° 0 mm 3 mps 676 mmHg 27%
    14:00 +30°C° 0 mm 4 mps 676 mmHg 25%
    15:00 +30°C° 0 mm 4 mps 676 mmHg 24%
    16:00 +29°C° 0 mm 4 mps 675 mmHg 26%
    17:00 +28°C° 0 mm 4 mps 675 mmHg 29%
    18:00 +27°C° 0 mm 4 mps 675 mmHg 32%
    19:00 +26°C° 0 mm 3 mps 675 mmHg 35%
    20:00 +25°C° 0 mm 3 mps 675 mmHg 38%
    21:00 +24°C° 0 mm 2 mps 675 mmHg 42%
    22:00 +23°C° 0 mm 2 mps 675 mmHg 43%
    23:00 +23°C° 0 mm 2 mps 675 mmHg 44%

    22 August, Tuesday

    Time Temperature Precipitation Wind Pressure Humidity
    00:00 +23°C° 0 mm 1 mps 675 mmHg 45%
    01:00 +22°C° 0 mm 1 mps 674 mmHg 46%
    02:00 +22°C° 0 mm 1 mps 674 mmHg 47%
    03:00 +21°C° 0 mm 1 mps 674 mmHg 48%
    04:00 +22°C° 0 mm 1 mps 674 mmHg 47%
    05:00 +20°C° 0 mm 0 mps 674 mmHg 46%
    06:00 +20°C° 0 mm 0 mps 675 mmHg 44%
    07:00 +23°C° 0 mm 1 mps 675 mmHg 39%
    08:00 +25°C° 0 mm 1 mps 676 mmHg 34%
    09:00 +27°C° 0 mm 1 mps 676 mmHg 28%
    10:00 +28°C° 0 mm 1 mps 676 mmHg 27%
    11:00 +29°C° 0 mm 2 mps 676 mmHg 25%
    12:00 +30°C° 0 mm 2 mps 676 mmHg 23%
    13:00 +30°C° 0 mm 2 mps 676 mmHg 23%
    14:00 +30°C° 0 mm 2 mps 676 mmHg 23%
    15:00 +31°C° 0 mm 3 mps 675 mmHg 24%
    16:00 +30°C° 0 mm 3 mps 675 mmHg 27%
    17:00 +29°C° 0 mm 3 mps 675 mmHg 31%
    18:00 +28°C° 0 mm 3 mps 675 mmHg 34%
    19:00 +27°C° 0 mm 3 mps 675 mmHg 38%
    20:00 +26°C° 0 mm 2 mps 675 mmHg 42%
    21:00 +25°C° 0 mm 2 mps 675 mmHg 46%
    22:00 +25°C° 0 mm 1 mps 675 mmHg 48%
    23:00 +24°C° 0 mm 1 mps 674 mmHg 49%

    23 August, Wednesday

    Time Temperature Precipitation Wind Pressure Humidity
    00:00 +24°C° 0 mm 1 mps 674 mmHg 50%
    01:00 +23°C° 0 mm 1 mps 674 mmHg 51%
    02:00 +23°C° 0 mm 1 mps 674 mmHg 52%
    03:00 +21°C° 0 mm 0 mps 674 mmHg 54%
    04:00 +23°C° 0 mm 1 mps 674 mmHg 53%
    05:00 +23°C° 0 mm 1 mps 674 mmHg 52%
    06:00 +23°C° 0 mm 1 mps 675 mmHg 52%
    07:00 +24°C° 0 mm 1 mps 675 mmHg 46%
    08:00 +26°C° 0 mm 1 mps 676 mmHg 41%
    09:00 +27°C° 0 mm 2 mps 676 mmHg 36%
    10:00 +28°C° 0 mm 2 mps 676 mmHg 33%
    11:00 +29°C° 0 mm 2 mps 676 mmHg 29%
    12:00 +30°C° 0 mm 2 mps 676 mmHg 26%
    13:00 +31°C° 0 mm 2 mps 676 mmHg 25%
    14:00 +31°C° 0 mm 2 mps 676 mmHg 25%
    15:00 +31°C° 0 mm 2 mps 676 mmHg 24%
    16:00 +30°C° 0 mm 3 mps 676 mmHg 27%
    17:00 +30°C° 0 mm 3 mps 675 mmHg 30%
    18:00 +29°C° 0 mm 3 mps 675 mmHg 33%
    19:00 +28°C° 0 mm 3 mps 675 mmHg 37%
    20:00 +27°C° 0 mm 2 mps 675 mmHg 41%
    21:00 +26°C° 0 mm 2 mps 675 mmHg 45%
    22:00 +25°C° 0 mm 1 mps 675 mmHg 46%
    23:00 +25°C° 0 mm 1 mps 675 mmHg 47%

    24 August, Thursday

    Time Temperature Precipitation Wind Pressure Humidity
    00:00 +25°C° 0 mm 1 mps 675 mmHg 48%
    01:00 +24°C° 0 mm 1 mps 675 mmHg 49%
    02:00 +24°C° 0 mm 1 mps 674 mmHg 49%
    03:00 +24°C° 0 mm 1 mps 674 mmHg 49%
    04:00 +24°C° 0 mm 1 mps 675 mmHg 49%
    05:00 +24°C° 0 mm 2 mps 675 mmHg 49%
    06:00 +24°C° 0 mm 2 mps 675 mmHg 49%
    07:00 +26°C° 0 mm 2 mps 676 mmHg 45%
    08:00 +27°C° 0 mm 3 mps 676 mmHg 42%
    09:00 +28°C° 0 mm 4 mps 677 mmHg 38%
    10:00 +29°C° 0 mm 4 mps 677 mmHg 35%
    11:00 +30°C° 0 mm 4 mps 677 mmHg 32%
    12:00 +32°C° 0 mm 4 mps 677 mmHg 29%
    13:00 +33°C° 0 mm 3 mps 677 mmHg 28%
    14:00 +33°C° 0 mm 3 mps 676 mmHg 27%
    15:00 +33°C° 0 mm 3 mps 676 mmHg 26%
    16:00 +33°C° 0 mm 3 mps 676 mmHg 28%
    17:00 +31°C° 0 mm 2 mps 676 mmHg 29%
    18:00 +31°C° 0 mm 2 mps 675 mmHg 30%
    19:00 +30°C° 0 mm 2 mps 676 mmHg 32%
    20:00 +29°C° 0 mm 1 mps 676 mmHg 34%
    21:00 +29°C° 0 mm 1 mps 676 mmHg 37%
    22:00 +28°C° 0 mm 1 mps 676 mmHg 37%
    23:00 +28°C° 0 mm 2 mps 675 mmHg 38%
    Show more